Location: Friedrichshafen
(47.6598°N, 9.4819°E)
Time: 14:48:31
(UTC+01:00)

OTV 5 (USA 277) - Visible Passes

Search period start: 18 January 2018 00:00
Search period end: 28 January 2018 00:00
Orbit: 404 x 417 km, 43.0° (Epoch: 07 September)

Date Brightness Start Highest point End Pass type
(mag) Time Alt. Az. Time Alt. Az. Time Alt. Az.
23 Jan ? 19:17:05 10° SSW 19:18:11 15° S 19:18:11 15° S visible
24 Jan ? 18:26:52 10° S 18:28:28 13° SSE 18:29:40 11° SE visible
24 Jan ? 20:02:09 10° SW 20:02:26 12° SW 20:02:26 12° SW visible
25 Jan ? 19:11:20 10° SW 19:13:51 26° S 19:13:51 26° S visible
26 Jan ? 18:20:37 10° SSW 18:23:16 21° SSE 18:25:15 14° ESE visible
26 Jan ? 19:57:00 10° WSW 19:58:01 17° WSW 19:58:01 17° WSW visible
27 Jan ? 19:06:03 10° WSW 19:09:09 34° S 19:09:24 34° SSE visible
